Home   Weather   Weilheim in Oberbayern   Past weeks

Flag for Germany Past Weather in Weilheim in Oberbayern, Bavaria, Germany — Yesterday and Last 2 Weeks

37 °F


Feels Like: 35 °F
Forecast: 31 / 55 °F
Wind: 3 mph from Southwest

Location: Altenstadt Airport

Current Time: Oct 22, 2016 at 5:40:05 AM

Latest Report: Oct 22, 2016 at 4:20 AM

Visibility: N/A

Pressure: 29.95 "Hg (27.94 "Hg at 560m altitude)

Humidity: 93%

Dew Point: 36 °F

Location of Weilheim in OberbayernLocation

Past Weather in Weilheim in Oberbayern — Graph


Weilheim in Oberbayern Temperature Yesterday

Maximum temperature yesterday: 43 °F (at 6:20 AM)
Minimum temperature yesterday: 39 °F (at 12:20 AM)
Average temperature yesterday: 40 °F

High & Low Weather Summary for the Past Weeks

High63 °F (Oct 14, 9:20 PM)100% (Oct 7, 4:20 AM)30.24 "Hg (Oct 7, 4:20 AM)
Low32 °F (Oct 10, 3:20 AM)48% (Oct 14, 11:20 PM)29.68 "Hg (Oct 14, 10:20 PM)
Average44 °F87%30.04 "Hg
* Reported Oct 7 4:20 AM — Oct 22 4:20 AM, Weilheim in Oberbayern, Weather by CustomWeather, © 2016

Note: Actual official high and low records may vary slightly from our data, if they occured in-between our weather recording intervals... More about our weather records


Weilheim in Oberbayern Weather History for the Previous 24 Hours

Scroll right to see more
Time TempWeatherWind HumidityBarometerVisibility
4:20 AM
Sat, Oct 22
37 °FChilly.3 mph93%29.95 "HgN/A
3:20 AM37 °FChilly.3 mph100%29.98 "HgN/A
2:20 AM39 °FChilly.3 mph93%29.98 "HgN/A
1:20 AM39 °FChilly.5 mph93%29.98 "HgN/A
12:20 AM39 °FChilly.5 mph93%29.98 "HgN/A
11:20 PM
Fri, Oct 21
39 °FChilly.5 mph93%30.01 "HgN/A
10:20 PM39 °FChilly.6 mph87%29.98 "HgN/A
9:20 PM39 °FChilly.7 mph87%29.98 "HgN/A
8:20 PM39 °FPassing clouds.6 mph87%29.98 "HgN/A
7:20 PM39 °FPassing clouds.6 mph87%29.98 "HgN/A
6:20 PM39 °FPassing clouds.9 mph81%29.98 "HgN/A
5:20 PM41 °FPartly sunny.7 mph81%29.98 "HgN/A
4:20 PM41 °FPartly sunny.9 mph81%29.95 "HgN/A
3:20 PM41 °FPartly sunny.12 mph87%29.95 "HgN/A
2:20 PM39 °FLight rain. Broken clouds.12 mph87%29.95 "HgN/A
1:20 PM41 °FSprinkles. Broken clouds.14 mph81%29.95 "HgN/A
12:20 PM43 °FPartly sunny.14 mph81%29.95 "HgN/A
11:20 AM41 °FPartly sunny.14 mph87%29.95 "HgN/A
10:20 AM41 °FLight rain. Mostly cloudy.15 mph87%29.92 "HgN/A
9:20 AM39 °FLight rain. Mostly cloudy.13 mph93%29.92 "HgN/A
8:20 AM39 °FLight rain. Mostly cloudy.21 mph87%29.92 "HgN/A
7:20 AM41 °FLight rain. Overcast.14 mph87%29.89 "HgN/A
6:20 AM43 °FPassing clouds.16 mph76%29.89 "HgN/A
5:20 AM41 °FPartly cloudy.6 mph81%29.89 "HgN/A
Weather by CustomWeather, © 2016

See weather overviewHow to use our weather pages